FLOCK 1E-13

Last updated on Mon Aug 22 2016 09:37:45 GMT+0000 (Coordinated Universal Time)

1 40740U 98067GS 16235.11662683 .01011872 11967-4 36130-3 0 9999 2 40740 51.6130 30.0605 0010879 321.5015 38.5346 16.24077393 63425

Satellite not in orbit